Location: Bailleul
(50.3375°N, 2.8513°E)
Time: 09:24:05
(UTC+00:00)

Cosmos 1814 Rocket - Pass Details

Date: 19 April 2021
Orbit: 744 x 787 km, 74.1° (Epoch: 05 May)

Event Time Altitude Azimuth Distance (km) Brightness Sun altitude
Rises 22:55:12 0° 334° (NNW) 3,283 8.5 -27.1°
Reaches altitude 10° 22:57:38 10° 331° (NNW) 2,346 7.4 -27.2°
Enters shadow 23:02:37 64° 270° (W) 859 4.2 -27.4°
